sat.trackr.live / text

‹ back to catalog

STARLINK-6318

NORAD 56530 · 2023-065AD

PAYLOAD ACTIVE UNKNOWN

§ Identity

Operator
Country
US
Launch date
2023-05-14
Launch site
AFETR
Launch vehicle
Mass (kg)
RCS (m²)

Purposes: comms

External: N2YO · Heavens-Above · Gunter

§ Orbital elements

Epoch: 2026-09-19T22:54:29.392704Z

Period
94.27 min
Inclination
43.0023°
Eccentricity
0.0001119
Mean motion
15.27578290 rev/d
Perigee alt
482.3 km
Apogee alt
483.8 km
Semi-major
6,861.2 km
B*
3.4176e-6
RAAN
169.8861°
Arg perigee
260.1743°
Mean anomaly
99.8982°
Rev number
18,660

§ Raw data

STARLINK-63181 56530U 23065AD  26262.95450686 -.00000168  00000+0  34176-5 0  99972 56530  43.0023 169.8861 0001119 260.1743  99.8982 15.27578290186609

JSON: /api/v1/satellites/56530 · /tle

For live sub-satellite position, see the globe view (requires WebGL).

§ Visibility from observer

Set your observer location to see the next 7 days of passes ≥ 10°. The values pass through the URL so the page stays shareable.

No JS? Fill the form by hand. The geolocation button needs JavaScript.